Home > Weather > Sharjah > Past weeks

Flag for United Arab Emirates Past Weather in Sharjah, Sharjah, United Arab Emirates — Yesterday and Last 2 Weeks

Now
79 °F

Clear.


Feels Like: 81 °F
Forecast: 82 / 96 °F
Wind: 9 mph from South

Location: Sharjah International Airport

Current Time: May 27, 2016 at 2:31:37 AM

Latest Report: May 27, 2016 at 2:00 AM


Visibility: 10 mi

Pressure: 29.65 "Hg

Humidity: 61%

Dew Point: 64 °F

Location of SharjahLocation

Past Weather in Sharjah — Graph

°F

Sharjah Temperature Yesterday

Maximum temperature yesterday: 95 °F (at 2:00 PM)
Minimum temperature yesterday: 81 °F (at 6:00 AM)
Average temperature yesterday: 88 °F

High & Low Weather Summary for the Past Weeks

 TemperatureHumidityPressure
High108 °F (May 17, 12:00 PM)89% (May 24, 6:00 AM)29.80 "Hg (May 24, 6:00 AM)
Low75 °F (May 16, 6:00 AM)12% (May 17, 12:00 PM)29.53 "Hg (May 20, 5:00 PM)
Average91 °F46%29.65 "Hg
* Reported May 12 1:00 AM — May 27 1:00 AM, Sharjah, Weather by CustomWeather, © 2016

Note: Actual official high and low records may vary slightly from our data, if they occured in-between our weather recording intervals... More about our weather records

Advertising

Sharjah Weather History for the Previous 24 Hours

Scroll right to see more
 ConditionsComfort  
Time TempWeatherWind HumidityBarometerVisibility
1:00 AM
Fri, May 27
82 °FClear.7 mph62%29.65 "Hg10 mi
12:00 AM82 °FClear.10 mph62%29.65 "Hg10 mi
11:00 PM
Thu, May 26
84 °FClear.8 mph58%29.68 "Hg10 mi
10:00 PM84 °FClear.7 mph62%29.68 "Hg10 mi
9:00 PM84 °FClear.9 mph62%29.68 "Hg10 mi
8:00 PM86 °FClear.12 mph59%29.65 "Hg10 mi
7:00 PM86 °FSunny.13 mph55%29.65 "Hg10 mi
6:00 PM90 °FSunny.16 mph49%29.62 "Hg10 mi
5:00 PM91 °FSunny.16 mph46%29.62 "Hg10 mi
4:00 PM93 °FSunny.18 mph41%29.62 "Hg10 mi
3:00 PM95 °FSunny.16 mph36%29.62 "Hg10 mi
2:00 PM95 °FSunny.12 mph36%29.62 "Hg10 mi
1:00 PM93 °FSunny.14 mph41%29.65 "Hg10 mi
12:00 PM93 °FSunny.13 mph44%29.65 "Hg10 mi
11:00 AM91 °FSunny.13 mph46%29.65 "Hg10 mi
10:00 AM91 °FSunny.14 mph46%29.65 "Hg10 mi
9:00 AM90 °FPassing clouds.13 mph49%29.65 "HgN/A
8:00 AM84 °FSunny.10 mph66%29.62 "Hg10 mi
7:00 AM81 °FSunny.9 mph74%29.62 "Hg10 mi
6:00 AM81 °FSunny.9 mph74%29.59 "Hg10 mi
5:00 AM84 °FClear.10 mph66%29.59 "Hg10 mi
4:00 AM84 °FClear.6 mph66%29.56 "Hg10 mi
3:00 AM84 °FClear.8 mph70%29.56 "Hg10 mi
2:00 AM86 °FClear.10 mph66%29.56 "Hg10 mi
Weather by CustomWeather, © 2016

See weather overviewHow to use our weather pages